User: anonymous   Login
Location: Borkenes
(68.7830°N, 16.1830°E)
Time: 20:26:27
(UTC+01:00)
Language:

Transit 4A - Orbit

View from above orbital plane
View from above orbital plane
View from above satellite
View from above satellite

Ground track
Ground track

The orbit data is extracted from the following two-line orbital elements,

1   116U 61015A   19341.45398691 -.00000056  00000-0  15731-4 0  9997
2   116  66.8100 320.0105 0072060 148.6074 211.9337 13.91761767965450
Epoch (UTC): 07 December 2019 10:53:44
Eccentricity: 0.0072060
inclination: 66.8100°
perigee height: 870 km
apogee height: 975 km
right ascension of ascending node: 320.0105°
argument of perigee: 148.6074°
revolutions per day: 13.91761767
mean anomaly at epoch: 211.9337°
orbit number at epoch: 96545

The dashed part of the orbit path shows where the satellite is in the earth's shadow,  

DLR